When you browse on this site, cookies collect data to enhance your experience and personalize the content and advertising you see.
Visit our Privacy Policy to learn more. By continuing to use the site, you agree to this use of cookies and data.
  • en Belgique
  • Liste des pays
  • À 7 jours
  • Température de l'eau
  • Carte satellitaire
  • Carte météo
  • Widgets météo
  • user-avatar
    Se connecter

    Météo par heure à Binche

    Ce jour, 17 Novembre, Samedi

    Heure Température Précipitation Vent Pression Humidité
    00:00 +3°C° 0 mm 2 m/s 759 mmHg 77%
    01:00 +3°C° 0 mm 2 m/s 759 mmHg 77%
    02:00 +3°C° 0 mm 2 m/s 759 mmHg 78%
    03:00 +2°C° 0 mm 2 m/s 758 mmHg 78%
    04:00 +2°C° 0 mm 2 m/s 758 mmHg 79%
    05:00 +1°C° 0 mm 3 m/s 758 mmHg 81%
    06:00 0°C° 0 mm 3 m/s 759 mmHg 82%
    07:00 +1°C° 0 mm 3 m/s 759 mmHg 79%
    08:00 +1°C° 0 mm 4 m/s 759 mmHg 75%
    09:00 +4°C° 0 mm 4 m/s 759 mmHg 71%
    10:00 +5°C° 0 mm 5 m/s 759 mmHg 66%
    11:00 +7°C° 0 mm 5 m/s 759 mmHg 61%
    12:00 +8°C° 0 mm 5 m/s 759 mmHg 56%
    13:00 +8°C° 0 mm 5 m/s 758 mmHg 57%
    14:00 +8°C° 0 mm 5 m/s 758 mmHg 59%
    15:00 +7°C° 0 mm 4 m/s 758 mmHg 60%
    16:00 +6°C° 0 mm 4 m/s 758 mmHg 61%
    17:00 +5°C° 0 mm 4 m/s 758 mmHg 62%
    18:00 +4°C° 0 mm 4 m/s 759 mmHg 64%
    19:00 +4°C° 0 mm 4 m/s 759 mmHg 63%
    20:00 +3°C° 0 mm 4 m/s 759 mmHg 63%
    21:00 +3°C° 0 mm 4 m/s 759 mmHg 63%
    22:00 +3°C° 0 mm 4 m/s 759 mmHg 64%
    23:00 +1°C° 0 mm 4 m/s 759 mmHg 65%

    Demain, 18 Novembre, Dimanche

    Heure Température Précipitation Vent Pression Humidité
    00:00 +1°C° 0 mm 4 m/s 759 mmHg 66%
    01:00 +1°C° 0 mm 4 m/s 759 mmHg 66%
    02:00 0°C° 0 mm 4 m/s 759 mmHg 67%
    03:00 0°C° 0 mm 4 m/s 759 mmHg 67%
    04:00 0°C° 0 mm 4 m/s 759 mmHg 67%
    05:00 0°C° 0 mm 4 m/s 759 mmHg 66%
    06:00 0°C° 0 mm 5 m/s 759 mmHg 65%
    07:00 0°C° 0 mm 5 m/s 759 mmHg 63%
    08:00 +1°C° 0 mm 5 m/s 759 mmHg 60%
    09:00 +2°C° 0 mm 5 m/s 759 mmHg 57%
    10:00 +3°C° 0 mm 5 m/s 759 mmHg 55%
    11:00 +4°C° 0 mm 6 m/s 758 mmHg 53%
    12:00 +5°C° 0 mm 6 m/s 758 mmHg 51%
    13:00 +6°C° 0 mm 5 m/s 758 mmHg 52%
    14:00 +6°C° 0 mm 5 m/s 758 mmHg 53%
    15:00 +5°C° 0 mm 5 m/s 757 mmHg 55%
    16:00 +3°C° 0 mm 5 m/s 757 mmHg 54%
    17:00 +2°C° 0 mm 5 m/s 757 mmHg 54%
    18:00 +1°C° 0 mm 5 m/s 757 mmHg 53%
    19:00 +1°C° 0 mm 5 m/s 757 mmHg 52%
    20:00 +1°C° 0 mm 5 m/s 757 mmHg 51%
    21:00 0°C° 0 mm 5 m/s 757 mmHg 50%
    22:00 0°C° 0 mm 5 m/s 757 mmHg 52%
    23:00 0°C° 0 mm 5 m/s 756 mmHg 55%

    Après-demain, 19 Novembre, Lundi

    Heure Température Précipitation Vent Pression Humidité
    00:00 -1°C° 0 mm 5 m/s 756 mmHg 57%
    01:00 -1°C° 0 mm 5 m/s 756 mmHg 65%
    02:00 -1°C° 0 mm 5 m/s 756 mmHg 73%
    03:00 -1°C° 0 mm 5 m/s 756 mmHg 80%
    04:00 -1°C° 0 mm 5 m/s 755 mmHg 83%
    05:00 0°C° 0 mm 5 m/s 755 mmHg 86%
    06:00 0°C° 0 mm 5 m/s 754 mmHg 89%
    07:00 +1°C° 0 mm 6 m/s 754 mmHg 86%
    08:00 +2°C° 0 mm 6 m/s 754 mmHg 82%
    09:00 +2°C° 0 mm 6 m/s 754 mmHg 78%
    10:00 +3°C° 0 mm 7 m/s 753 mmHg 73%
    11:00 +4°C° 0 mm 7 m/s 753 mmHg 68%
    12:00 +4°C° 0 mm 7 m/s 752 mmHg 63%
    13:00 +4°C° 0 mm 7 m/s 752 mmHg 65%
    14:00 +4°C° 0 mm 6 m/s 751 mmHg 67%
    15:00 +4°C° 0 mm 6 m/s 751 mmHg 69%
    16:00 +3°C° 0 mm 6 m/s 750 mmHg 72%
    17:00 +2°C° 0 mm 6 m/s 750 mmHg 75%
    18:00 +2°C° 0 mm 6 m/s 750 mmHg 78%
    19:00 +1°C° 0 mm 5 m/s 749 mmHg 79%
    20:00 +1°C° 0 mm 5 m/s 749 mmHg 79%
    21:00 0°C° 0 mm 5 m/s 749 mmHg 80%
    22:00 0°C° 0 mm 5 m/s 749 mmHg 79%
    23:00 0°C° 0 mm 5 m/s 748 mmHg 79%

    20 Novembre, Mardi

    Heure Température Précipitation Vent Pression Humidité
    00:00 -1°C° 0 mm 5 m/s 748 mmHg 78%
    01:00 -1°C° 0 mm 5 m/s 747 mmHg 78%
    02:00 -2°C° 0 mm 6 m/s 747 mmHg 77%
    03:00 -2°C° 0 mm 6 m/s 746 mmHg 76%
    04:00 -2°C° 0 mm 6 m/s 746 mmHg 76%
    05:00 -2°C° 0 mm 6 m/s 745 mmHg 75%
    06:00 -2°C° 0 mm 6 m/s 745 mmHg 74%
    07:00 -1°C° 0 mm 7 m/s 745 mmHg 72%
    08:00 -1°C° 0 mm 7 m/s 744 mmHg 69%
    09:00 0°C° 0 mm 7 m/s 744 mmHg 67%
    10:00 0°C° 0 mm 7 m/s 744 mmHg 65%
    11:00 +2°C° 0 mm 7 m/s 743 mmHg 63%
    12:00 +2°C° 0 mm 7 m/s 743 mmHg 61%
    13:00 +2°C° 0 mm 7 m/s 742 mmHg 62%
    14:00 +1°C° 0 mm 6 m/s 742 mmHg 63%
    15:00 +1°C° 0 mm 6 m/s 742 mmHg 64%
    16:00 0°C° 0 mm 5 m/s 742 mmHg 68%
    17:00 0°C° 0 mm 5 m/s 741 mmHg 71%
    18:00 -1°C° 0 mm 4 m/s 741 mmHg 74%
    19:00 -1°C° 0.3 mm 4 m/s 741 mmHg 77%
    20:00 0°C° 0.3 mm 4 m/s 741 mmHg 79%
    21:00 0°C° 0.3 mm 5 m/s 741 mmHg 81%
    22:00 0°C° 0.7 mm 4 m/s 741 mmHg 85%
    23:00 0°C° 0.7 mm 4 m/s 741 mmHg 88%

    21 Novembre, Mercredi

    Heure Température Précipitation Vent Pression Humidité
    00:00 0°C° 0.7 mm 3 m/s 741 mmHg 92%
    01:00 0°C° 0.2 mm 3 m/s 741 mmHg 93%
    02:00 0°C° 0.2 mm 3 m/s 740 mmHg 94%
    03:00 0°C° 0.2 mm 3 m/s 740 mmHg 94%
    04:00 0°C° 0.2 mm 3 m/s 740 mmHg 95%
    05:00 0°C° 0.2 mm 3 m/s 741 mmHg 95%
    06:00 0°C° 0.2 mm 3 m/s 741 mmHg 96%
    07:00 0°C° 0.1 mm 3 m/s 741 mmHg 95%
    08:00 -1°C° 0.1 mm 4 m/s 742 mmHg 94%
    09:00 0°C° 0.1 mm 4 m/s 742 mmHg 93%
    10:00 0°C° 0 mm 5 m/s 743 mmHg 91%
    11:00 0°C° 0 mm 5 m/s 743 mmHg 89%
    12:00 -1°C° 0 mm 6 m/s 743 mmHg 87%
    13:00 -1°C° 0 mm 6 m/s 744 mmHg 87%
    14:00 0°C° 0 mm 5 m/s 744 mmHg 86%
    15:00 0°C° 0 mm 5 m/s 745 mmHg 85%
    16:00 0°C° 0 mm 5 m/s 746 mmHg 86%
    17:00 -1°C° 0 mm 5 m/s 746 mmHg 87%
    18:00 -1°C° 0 mm 5 m/s 747 mmHg 87%
    19:00 -1°C° 0 mm 4 m/s 747 mmHg 87%
    20:00 -1°C° 0 mm 4 m/s 748 mmHg 88%
    21:00 -2°C° 0 mm 4 m/s 748 mmHg 88%
    22:00 -2°C° 0 mm 4 m/s 749 mmHg 87%
    23:00 -2°C° 0 mm 4 m/s 749 mmHg 87%

    22 Novembre, Jeudi

    Heure Température Précipitation Vent Pression Humidité
    00:00 -2°C° 0 mm 4 m/s 750 mmHg 86%
    01:00 -2°C° 0 mm 4 m/s 750 mmHg 86%
    02:00 -2°C° 0 mm 3 m/s 750 mmHg 86%
    03:00 -2°C° 0 mm 3 m/s 750 mmHg 86%
    04:00 -2°C° 0 mm 3 m/s 751 mmHg 86%
    05:00 -2°C° 0 mm 3 m/s 751 mmHg 86%
    06:00 -2°C° 0 mm 3 m/s 751 mmHg 86%
    07:00 -1°C° 0 mm 3 m/s 752 mmHg 84%
    08:00 -1°C° 0 mm 3 m/s 752 mmHg 82%
    09:00 0°C° 0 mm 3 m/s 752 mmHg 80%
    10:00 +2°C° 0 mm 3 m/s 752 mmHg 79%
    11:00 +4°C° 0 mm 2 m/s 752 mmHg 77%
    12:00 +5°C° 0 mm 2 m/s 752 mmHg 76%
    13:00 +5°C° 0 mm 2 m/s 752 mmHg 80%
    14:00 +4°C° 0 mm 2 m/s 752 mmHg 83%
    15:00 +4°C° 0 mm 2 m/s 752 mmHg 87%
    16:00 +3°C° 0 mm 2 m/s 752 mmHg 88%
    17:00 +3°C° 0 mm 2 m/s 752 mmHg 90%
    18:00 +2°C° 0 mm 2 m/s 753 mmHg 91%
    19:00 +2°C° 0 mm 2 m/s 753 mmHg 91%
    20:00 +2°C° 0 mm 2 m/s 753 mmHg 92%
    21:00 +2°C° 0 mm 2 m/s 753 mmHg 92%
    22:00 +2°C° 0 mm 2 m/s 753 mmHg 92%
    23:00 +2°C° 0 mm 2 m/s 753 mmHg 92%
    Voir plus